Vorticity
nan nan nan nan nan nan nan nan nan nan nan nan nan nan nan nan nan nan nan nan nan nan nan nan nan nan nan nan nan nan nan nan nan nan nan nan nan nan nan nan nan nan nan nan nan nan nan nan nan
nan 5 3 9 9 1 16 11 7 3 8 14 7 -0 6 12 -10 -0 13 11 11 12 7 8 6 5 5 6 7 5 5 5 5 5 5 5 5 5 5 5 4 4 4 4 3 3 5 5 nan
nan 6 -1 4 9 -3 3 11 12 5 3 5 9 8 4 11 9 -4 13 12 10 10 7 10 7 5 5 6 6 6 5 5 5 6 5 5 6 5 5 5 4 5 6 6 6 5 5 5 nan
nan 12 9 8 2 0 -6 -3 19 12 4 -0 4 5 12 6 13 9 7 8 7 9 7 10 8 6 5 5 6 6 6 5 6 6 5 6 6 5 5 4 4 7 7 6 6 5 5 6 nan
nan 11 16 10 3 8 4 -6 1 22 9 4 -2 -4 8 9 8 16 4 6 8 9 6 7 11 6 6 5 6 6 6 6 6 6 6 5 6 6 5 4 5 7 7 7 6 4 5 6 nan
nan 7 12 20 9 5 2 5 -4 2 12 10 2 -4 -4 6 9 11 5 6 9 9 6 8 11 6 6 6 5 5 6 6 6 6 6 6 6 6 5 5 5 5 6 8 6 5 5 5 nan
nan 10 7 15 20 9 9 3 -2 0 7 8 10 8 -1 5 7 6 7 6 9 9 6 8 10 8 7 5 5 6 6 6 7 6 5 6 6 7 7 6 5 5 6 6 6 7 5 5 nan
nan 11 13 3 15 21 12 7 9 3 -3 7 5 10 11 4 7 5 8 7 8 9 6 6 7 8 6 8 9 6 6 7 7 6 6 6 4 6 6 5 6 6 7 7 5 6 6 6 nan
nan 6 7 5 1 16 23 17 13 9 8 8 2 2 11 9 10 6 6 6 5 8 9 5 6 8 6 6 7 9 7 5 4 3 4 2 5 7 6 7 8 9 7 7 5 5 6 3 nan
nan 3 2 5 5 2 11 17 29 30 14 6 2 2 6 13 8 4 2 5 6 6 7 7 7 5 5 6 9 6 5 5 5 6 1 2 8 7 6 5 9 9 5 5 5 4 1 0 nan
nan 5 4 1 5 3 -2 3 11 24 24 10 4 2 2 3 7 4 3 3 6 4 5 7 6 7 6 4 5 6 7 9 10 8 4 5 6 7 7 6 8 7 2 3 7 2 3 6 nan
nan 7 5 6 7 3 1 5 3 3 11 16 13 4 1 3 2 6 5 4 5 6 6 7 6 8 6 5 5 6 7 9 9 9 6 4 7 8 7 8 8 6 8 7 3 5 9 9 nan
nan 5 4 5 6 10 10 7 4 2 5 4 27 22 2 5 -2 3 6 6 6 6 7 7 8 6 9 5 4 7 8 10 10 8 6 6 7 7 7 8 7 6 9 9 6 7 6 7 nan
nan 3 7 6 7 8 10 9 10 3 3 3 11 24 21 5 5 -1 4 5 5 6 7 8 9 7 7 6 4 7 15 6 8 9 10 7 6 7 8 7 8 8 7 9 10 8 7 7 nan
nan 4 8 7 9 9 9 9 12 11 9 8 3 18 20 12 5 4 5 6 5 7 9 10 9 8 8 7 5 7 9 9 8 11 10 7 8 7 5 5 8 9 10 8 7 7 7 7 nan
nan 7 4 4 7 8 9 7 15 19 11 11 9 10 16 16 8 9 8 9 9 7 7 6 8 11 7 8 5 7 6 11 7 9 10 9 9 8 4 6 8 7 7 7 7 7 6 7 nan
nan 7 5 6 6 12 11 10 12 14 9 5 11 13 15 11 8 10 11 9 10 7 7 8 9 8 9 5 7 9 6 5 7 9 11 10 9 7 6 7 9 7 7 8 7 8 7 7 nan
nan 6 5 8 7 4 5 13 10 11 8 12 18 11 13 14 12 9 10 10 10 10 9 7 11 10 8 4 7 6 7 7 8 7 11 9 9 9 6 8 9 6 7 8 9 7 7 8 nan
nan 6 8 8 6 7 7 9 6 10 13 7 4 19 23 7 9 12 10 10 10 11 11 9 9 9 6 8 7 8 8 6 8 10 13 8 8 10 6 8 8 7 8 9 7 6 7 6 nan
nan 11 9 7 12 9 8 10 10 11 11 11 4 4 14 15 9 10 10 11 10 10 9 9 9 10 6 7 8 9 10 10 10 11 10 11 10 9 9 8 8 7 9 8 6 4 3 9 nan
nan 9 8 6 10 15 20 18 16 17 11 12 8 8 8 15 14 9 9 11 10 11 10 11 9 7 8 8 6 8 7 9 11 11 9 13 10 8 12 8 7 7 6 8 7 5 4 7 nan
nan 14 12 11 9 8 8 15 27 25 13 15 14 11 8 13 12 12 17 13 11 12 14 12 10 7 7 8 11 6 4 5 6 8 10 11 8 8 10 11 7 6 7 9 6 6 6 7 nan
nan 11 17 15 11 8 0 4 24 25 2 -3 8 10 25 26 8 -1 18 25 13 15 12 10 11 10 9 7 6 6 7 7 10 12 10 5 7 9 8 10 8 6 7 10 9 7 4 5 nan
nan 15 15 15 15 14 16 6 5 6 9 4 6 5 7 27 28 4 -1 17 26 14 8 10 9 9 8 9 9 9 6 8 8 9 8 6 8 8 9 9 9 7 8 9 7 9 7 6 nan
nan 19 13 15 9 9 21 6 -2 6 9 9 9 7 10 11 14 14 10 8 13 22 17 5 8 8 8 8 9 10 9 8 8 5 7 7 5 10 12 8 8 8 9 9 9 8 8 6 nan
nan 14 8 7 8 14 18 7 -0 2 7 8 9 9 8 11 9 9 11 11 9 8 19 22 6 8 9 8 7 9 9 8 11 8 6 7 9 9 11 8 8 8 8 7 9 7 9 7 nan
nan 11 12 15 11 10 10 12 0 -4 4 6 8 9 8 9 10 9 9 8 11 9 9 18 20 16 10 7 7 9 10 9 12 11 8 8 9 11 12 9 8 8 8 8 6 8 9 7 nan
nan 13 16 11 8 10 5 5 -3 -1 6 7 8 9 8 8 9 11 9 8 12 11 8 10 30 23 9 8 7 9 10 9 11 13 11 7 8 10 10 9 8 9 9 9 6 7 10 6 nan
nan 13 12 12 11 14 8 2 1 6 7 9 9 9 8 9 9 9 10 10 9 13 10 8 12 25 22 7 8 9 10 10 9 10 12 12 9 8 8 8 9 9 9 8 7 8 9 8 nan
nan nan nan nan nan nan nan nan nan nan nan nan nan nan nan nan nan nan nan nan nan nan nan nan nan nan nan nan nan nan nan nan nan nan nan nan nan nan nan nan nan nan nan nan nan nan nan nan nan
CAPE
47 76 162 158 107 57 19 11 13 3 7 0 0 0 0 0 0 0 7 0 1 46 750 1955 2128 2185 2272 2336 2076 1928 1826 1789 1613 1477 1304 737 111 21 14 12 19 80 24 25 103 53 39 26 23
80 78 143 151 55 37 0 1 9 7 9 0 0 0 0 0 0 0 0 0 0 59 793 1553 2009 2080 2228 2204 2039 1961 1898 1803 1616 1489 1306 946 181 18 6 12 14 34 33 26 36 20 16 23 17
102 105 136 98 39 9 0 0 1 9 1 0 0 0 0 0 0 0 25 16 0 108 770 1556 1956 2051 2159 2047 2010 1888 1900 1804 1585 1425 1189 923 292 14 6 10 16 30 26 24 22 15 16 24 14
68 77 95 64 30 0 0 0 7 15 19 2 0 0 0 0 0 0 177 157 106 79 684 1517 1880 1969 1971 1836 1826 1915 1827 1746 1483 1305 1031 739 269 16 7 6 18 27 28 25 16 16 25 16 13
17 89 17 48 8 0 0 2 11 24 27 17 16 0 0 0 0 0 337 323 287 162 740 1820 1916 1941 1846 1763 1690 1730 1713 1568 1358 1215 1016 733 345 18 12 5 12 31 23 27 14 14 11 17 9
13 41 9 17 0 0 0 12 39 28 16 30 12 3 0 0 0 0 252 460 381 418 828 1739 1484 1572 1470 1531 1470 1487 1510 1429 1150 1021 913 637 230 21 10 6 1 34 26 24 14 11 17 14 10
21 8 21 5 2 0 0 0 13 8 24 36 24 9 0 0 0 37 434 588 707 753 1053 1693 1963 1189 1035 1060 1155 1176 1243 1119 943 802 604 323 51 26 10 7 9 35 36 26 24 24 10 16 12
19 26 13 11 18 10 0 0 0 17 10 53 15 0 0 0 0 100 690 762 843 943 1249 1545 1353 1603 1537 1640 880 838 824 667 618 383 141 1 5 6 19 11 13 41 47 37 29 23 13 15 14
0 25 11 49 21 17 5 2 0 10 27 52 22 0 0 0 16 197 512 925 850 947 1155 1356 1301 1733 1696 1645 928 478 471 417 268 111 0 0 0 0 6 0 11 30 44 39 28 18 19 23 16
20 16 5 8 6 8 1 0 3 15 39 130 58 0 0 0 123 326 337 594 888 884 1100 1310 1564 1542 1182 732 640 577 666 613 403 145 0 0 0 2 1 0 11 28 30 32 20 13 12 17 8
0 50 3 7 3 13 6 3 1 0 47 42 74 14 0 4 20 34 52 151 519 881 1045 1143 1135 1258 1622 972 443 355 322 183 156 14 0 0 0 5 5 8 16 28 12 16 16 14 8 0 1
0 0 0 0 0 0 0 0 12 4 3 18 30 84 106 73 119 108 43 38 197 553 885 1013 1011 942 1098 1196 822 191 104 54 4 2 0 0 3 10 2 8 11 24 20 19 11 10 4 0 0
0 0 0 0 0 0 0 0 13 3 0 0 0 77 84 112 62 84 55 81 158 304 559 867 1119 1150 1341 1056 452 248 2 0 0 0 0 0 0 3 1 6 8 10 4 10 11 6 0 0 0
1 0 0 0 0 0 0 0 0 0 0 0 0 19 14 21 0 86 133 75 72 98 251 598 988 1158 1304 1073 523 69 6 1 0 0 0 0 0 3 1 0 0 0 0 1 2 0 0 0 0
8 5 4 0 0 0 0 0 0 0 0 0 0 0 50 25 0 33 111 84 45 48 179 354 898 1163 1227 1046 394 38 1 1 0 0 0 0 0 0 0 0 0 0 0 0 0 0 0 0 0
27 27 44 0 0 0 0 5 0 0 1 0 0 0 21 37 2 0 6 126 85 91 133 253 710 1002 839 533 119 6 1 1 1 0 0 0 0 0 0 0 0 0 0 0 0 0 0 0 0
31 40 37 15 2 3 24 1 0 0 0 0 4 3 14 36 6 1 8 72 139 99 87 203 404 579 895 340 92 7 2 1 2 1 0 0 0 0 0 0 0 0 0 0 0 0 0 0 0
30 37 31 30 4 30 7 40 17 5 0 16 3 15 0 37 0 0 60 82 117 144 141 193 361 469 489 227 111 8 2 1 0 1 0 0 0 0 0 0 0 0 0 0 0 0 0 0 0
19 27 23 11 6 24 5 2 0 0 0 0 0 0 51 49 32 27 50 194 260 225 238 204 303 294 241 67 2 1 2 1 1 0 1 0 0 0 0 0 0 0 0 0 0 0 0 0 0
22 37 30 32 0 32 6 8 3 2 0 0 0 0 21 49 121 169 149 188 246 291 343 321 242 170 110 3 3 1 1 0 0 0 0 0 0 0 0 0 0 0 0 0 0 0 0 0 0
15 20 19 16 3 2 8 22 0 0 0 0 0 0 1 36 29 84 207 214 263 331 410 237 102 73 91 5 2 0 0 0 0 0 0 0 0 0 0 0 0 0 0 0 0 0 0 0 0
29 4 5 9 18 6 33 22 0 0 0 0 0 0 6 4 68 8 193 282 357 455 624 479 157 70 4 2 1 0 0 0 2 0 0 0 0 0 0 0 0 0 0 0 0 0 0 0 0
3 0 5 5 15 26 2 34 0 0 0 0 0 1 0 22 9 0 0 296 421 565 713 266 75 12 1 2 0 5 3 0 1 1 1 0 0 0 0 0 0 0 0 0 0 0 0 0 0
30 24 14 17 26 44 0 38 2 2 5 0 0 0 1 1 13 0 0 0 186 545 257 101 31 5 1 1 0 0 0 0 2 1 0 0 0 0 0 0 0 0 0 0 0 0 0 0 0
2 22 33 20 40 12 2 30 6 7 8 8 4 1 1 3 1 2 1 0 0 42 259 54 18 11 2 1 0 1 1 1 1 1 0 0 0 0 0 0 0 0 0 0 0 0 0 0 0
6 12 31 21 32 45 23 22 7 12 11 7 3 3 0 0 4 4 2 2 1 0 0 89 26 22 2 1 1 1 2 0 0 1 2 0 0 0 0 0 0 0 0 0 0 0 0 0 0
0 16 1 21 0 32 2 4 5 0 0 2 2 0 2 2 4 4 3 2 4 1 0 1 14 40 12 1 2 2 1 1 2 0 0 0 0 0 0 0 0 0 0 0 0 0 0 0 0
1 5 3 42 28 17 5 1 2 1 2 3 2 4 4 3 3 4 2 1 3 2 0 0 0 8 4 2 2 1 1 1 1 1 0 0 0 0 0 0 0 0 0 0 0 0 0 0 0
0 0 0 2 1 44 28 1 13 9 10 8 4 4 4 4 4 5 3 1 1 3 0 0 0 0 2 3 1 2 1 1 0 0 0 0 0 0 0 0 0 0 0 0 0 0 0 0 0
0 4 3 1 0 3 0 1 10 11 12 9 7 6 4 4 4 4 4 1 0 1 1 1 2 0 0 0 0 1 2 1 1 0 0 0 0 0 0 0 0 0 0 0 0 0 0 0 0